{"data":{"norad_id":65979,"epoch":"2026-09-20T21:17:18.162528Z","epoch_age_seconds":106938,"freshness":"FRESH","line1":"1 65979U 25230F   26263.88701577  .00000111  00000+0  92788-4 0  9990","line2":"2 65979  81.2989 123.1874 0003025 324.4782  35.6171 13.81708700 47044","mean_motion":13.817087,"eccentricity":0.0003025,"inclination_deg":81.2989,"raan_deg":123.1874,"arg_perigee_deg":324.4782,"mean_anomaly_deg":35.6171,"bstar":9.2788e-5,"rev_number":4704,"period_min":104.21878359744,"perigee_km":955.61330461011,"apogee_km":960.05156611851,"semimajor_km":7335.9694353643,"source":"CELESTRAK","updated_at":"2026-09-21T09:00:15.687296Z"}}